Location: Red Bud (historical)
(37.7759°N, 88.4053°W)
Time: 22:12:27
(UTC+00:00)

Nauka - Pass Details

Date: 19 September 2021
Orbit: 418 x 423 km, 51.6° (Epoch: 21 October)

Event Time Altitude Azimuth Distance (km) Brightness Sun altitude
Rises 00:57:37 0° 247° (WSW) 2,350 ? -12.8°
Reaches altitude 10° 00:59:47 10° 255° (WSW) 1,491 ? -13.3°
Maximum altitude 01:02:57 39° 326° (NW) 645 ? -13.9°
Drops below altitude 10° 01:06:08 10° 37° (NE) 1,500 ? -14.5°
Enters shadow 01:06:29 - 39° (NE) 1,635 ? -14.6°
